Change the Weather History Date:

Thursday, December 1, 2011

  Actual Average Record
Temperature  
Mean Temperature 18 °F 17 °F  
Max Temperature 26 °F 26 °F 54 °F (1969)
Min Temperature 9 °F 8 °F -17 °F (1978)
Degree Days  
Heating Degree Days 47 48  
Month to date heating degree days 47 48  
Since 1 July heating degree days 1740 2247  
Cooling Degree Days 0 0  
Month to date cooling degree days 0 0  
Year to date cooling degree days 538 379  
Moisture  
Dew Point 9 °F    
Average Humidity 65    
Maximum Humidity 83    
Minimum Humidity 47    
Precipitation  
Precipitation 0.00 in 0.02 in 0.23 in (2007)
Month to date precipitation 0.00 0.02  
Year to date precipitation 19.07 20.22  
Snow  
Snow 0.00 in 0.30 in 6.50 in (2007)
Month to date snowfall 0.0 0.3  
Since 1 July snowfall 1.2 9.5  
Snow Depth 0.00 in    
Sea Level Pressure  
Sea Level Pressure 30.47 in    
Wind  
Wind Speed 10 mph (West)    
Max Wind Speed 20 mph    
Max Gust Speed 25 mph    
Visibility 10 miles    
Events      
T = Trace of Precipitation, MM = Missing Value Source: NWS Daily Summary

Daily Weather History Graph

Daily Weather History Graph

Search for Another Location

Airport or City:

Trip Planner

Search our weather history database for the weather conditions in past years. The results will help you decide how hot, cold, wet, or windy it might be!

Date:

Astronomy

Dec. 01, 2011 Rise Set
Actual Time 7:57 AM CST 4:38 PM CST
Civil Twilight 7:21 AM CST 5:13 PM CST
Nautical Twilight 6:42 AM CST 5:52 PM CST
Astronomical Twilight 6:05 AM CST 6:29 PM CST
Moon 12:23 PM CST (12/1) 11:59 PM CST (12/1)
Length of Visible Light 9h 52m
Length of Day
8h 41m
Waxing Crescent, 43% of the Moon is Illuminated
Dec 1
Waxing Crescent
Dec 2
First Quarter
Dec 10
Full
Dec 17
Last Quarter
Dec 24
New

Hourly Weather History & Observations

Time (CST) Temp. Windchill Dew Point Humidity Pressure Visibility Wind Dir Wind Speed Gust Speed Precip Events Conditions
12:53 AM 19.9 °F 5.7 °F 10.9 °F 68% 30.42 in 10.0 mi North 16.1 mph - N/A   Mostly Cloudy
1:53 AM 17.6 °F 2.2 °F 8.6 °F 68% 30.39 in 10.0 mi North 17.3 mph - N/A   Scattered Clouds
2:53 AM 16.0 °F 0.1 °F 8.1 °F 71% 30.48 in 10.0 mi North 17.3 mph 21.9 mph N/A   Partly Cloudy
3:53 AM 15.1 °F 1.8 °F 8.1 °F 74% 30.51 in 10.0 mi North 11.5 mph - N/A   Partly Cloudy
4:53 AM 14.0 °F -2.5 °F 7.0 °F 74% 30.54 in 10.0 mi North 17.3 mph 24.2 mph N/A   Partly Cloudy
5:53 AM 12.0 °F -0.4 °F 7.0 °F 80% 30.56 in 10.0 mi North 9.2 mph - N/A   Clear
6:53 AM 10.9 °F -1.8 °F 6.1 °F 81% 30.59 in 10.0 mi NNW 9.2 mph - N/A   Partly Cloudy
7:53 AM 9.0 °F -2.2 °F 5.0 °F 84% 30.61 in 10.0 mi NNW 6.9 mph - N/A   Clear
8:53 AM 10.9 °F -0.8 °F 6.1 °F 81% 30.62 in 10.0 mi NW 8.1 mph - N/A   Clear
9:53 AM 14.0 °F 1.2 °F 7.0 °F 74% 30.63 in 10.0 mi NNW 10.4 mph - N/A   Clear
10:53 AM 16.0 °F 8.8 °F 6.1 °F 65% 30.64 in 10.0 mi WNW 4.6 mph - N/A   Clear
11:53 AM 19.0 °F 11.1 °F 3.0 °F 50% 30.62 in 10.0 mi Variable 5.8 mph - N/A   Partly Cloudy
12:53 PM 21.0 °F 16.2 °F 5.0 °F 50% 30.58 in 10.0 mi West 3.5 mph - N/A   Mostly Cloudy
1:53 PM 21.9 °F 15.7 °F 7.0 °F 53% 30.56 in 10.0 mi WNW 4.6 mph - N/A   Overcast
2:53 PM 24.8 °F 19.1 °F 8.6 °F 50% 30.46 in 10.0 mi SSE 4.6 mph - N/A   Scattered Clouds
3:53 PM 25.0 °F 18.1 °F 12.0 °F 58% 30.49 in 10.0 mi SW 5.8 mph - N/A   Partly Cloudy
4:53 PM 19.0 °F 10.0 °F 10.9 °F 71% 30.47 in 10.0 mi SSW 6.9 mph - N/A   Scattered Clouds
5:53 PM 18.0 °F 7.7 °F 10.9 °F 74% 30.43 in 10.0 mi South 8.1 mph - N/A   Scattered Clouds
6:53 PM 18.0 °F 6.9 °F 10.9 °F 74% 30.40 in 10.0 mi South 9.2 mph - N/A   Partly Cloudy
7:53 PM 19.0 °F 5.0 °F 12.0 °F 74% 30.35 in 10.0 mi South 15.0 mph - N/A   Partly Cloudy
8:53 PM 19.0 °F 6.1 °F 12.9 °F 77% 30.32 in 10.0 mi South 12.7 mph - N/A   Partly Cloudy
9:53 PM 19.9 °F 6.7 °F 14.0 °F 78% 30.30 in 10.0 mi South 13.8 mph - N/A   Partly Cloudy
10:53 PM 19.4 °F 7.2 °F 14.0 °F 80% 30.20 in 10.0 mi South 11.5 mph - N/A   Clear
11:53 PM 19.0 °F 6.1 °F 15.1 °F 85% 30.22 in 10.0 mi South 12.7 mph - N/A   Clear